Weather History for Laramie, WY

Change the Weather History Date:

Tuesday, May 28, 2013

  Actual Average Record
Temperature  
Mean Temperature 50 °F 51 °F  
Max Temperature 69 °F 66 °F 81 °F (2010)
Min Temperature 31 °F 37 °F 25 °F (1954)
Degree Days  
Heating Degree Days 15 14  
Month to date heating degree days 473 501  
Since 1 July heating degree days 8413 8550  
Cooling Degree Days 0 0  
Month to date cooling degree days 0 0  
Year to date cooling degree days 0 0  
Moisture  
Dew Point 30 °F    
Average Humidity 47    
Maximum Humidity 75    
Minimum Humidity 19    
Precipitation  
Precipitation T in 0.06 in 0.41 in (1948)
Month to date precipitation 0.72 1.49  
Year to date precipitation 2.70 3.75  
Sea Level Pressure  
Sea Level Pressure 29.62 in    
Wind  
Wind Speed 10 mph (South)    
Max Wind Speed 24 mph    
Max Gust Speed 29 mph    
Visibility 10 miles    
Events Rain , Thunderstorm    
T = Trace of Precipitation, MM = Missing Value Source: NWS Daily Summary

Daily Weather History Graph

Daily Weather History Graph

Search for Another Location

Airport:

Trip Planner

Search our weather history database for the weather conditions in past years. The results will help you decide how hot, cold, wet, or windy it might be!

Date:

Astronomy

May. 28, 2013 Rise Set
Actual Time 5:33 AM MDT 8:26 PM MDT
Civil Twilight 5:00 AM MDT 8:59 PM MDT
Nautical Twilight 4:19 AM MDT 9:41 PM MDT
Astronomical Twilight 3:31 AM MDT 10:29 PM MDT
Moon 11:50 PM MDT (5/28) 9:26 AM MDT (5/28)
Length of Visible Light 15h 58m
Length of Day
14h 53m
Waning Gibbous, 82% of the Moon is Illuminated
May 28
Waning Gibbous
May 31
Last Quarter
Jun 8
New
Jun 16
First Quarter
Jun 23
Full

Hourly Weather History & Observations

Time (MDT) Temp. Windchill Dew Point Humidity Pressure Visibility Wind Dir Wind Speed Gust Speed Precip Events Conditions
12:53 AM 39.0 °F 33.4 °F 26.1 °F 60% 29.67 in 10.0 mi SW 8.1 mph - N/A   Clear
1:53 AM 35.1 °F 27.9 °F 28.0 °F 76% 29.70 in - SSE 9.2 mph - N/A   Clear
2:53 AM 39.9 °F 34.5 °F 25.0 °F 55% 29.69 in - South 8.1 mph - N/A   Clear
3:53 AM 36.0 °F 33.3 °F 26.1 °F 67% 29.70 in - ESE 3.5 mph - N/A   Clear
4:53 AM 33.1 °F 28.7 °F 25.0 °F 72% 29.70 in - South 4.6 mph - N/A   Clear
5:53 AM 32.0 °F 25.6 °F 25.0 °F 75% 29.73 in 10.0 mi WSW 6.9 mph - N/A   Clear
6:53 AM 37.9 °F - 26.1 °F 62% 29.67 in - Calm Calm - N/A   Clear
7:53 AM 46.9 °F - 28.9 °F 50% 29.64 in - SSW 6.9 mph - N/A   Clear
8:53 AM 53.1 °F - 27.0 °F 37% 29.62 in 10.0 mi South 6.9 mph - N/A   Clear
9:53 AM 59.0 °F - 30.9 °F 35% 29.57 in 10.0 mi SSE 19.6 mph 23.0 mph N/A   Clear
10:53 AM 60.1 °F - 33.1 °F 36% 29.60 in 10.0 mi SSE 17.3 mph - N/A   Clear
11:53 AM 63.0 °F - 34.0 °F 34% 29.57 in 10.0 mi SE 13.8 mph - N/A   Mostly Cloudy
12:53 PM 63.0 °F - 30.9 °F 30% 29.57 in 10.0 mi Variable 5.8 mph - N/A   Scattered Clouds
1:53 PM 59.0 °F - 33.1 °F 38% 29.62 in 10.0 mi SW 17.3 mph 26.5 mph 0.00 in Rain Light Rain
2:53 PM 64.0 °F - 37.0 °F 37% 29.54 in 10.0 mi East 9.2 mph - 0.00 in   Mostly Cloudy
3:06 PM 62.6 °F - 37.4 °F 39% 29.77 in 10.0 mi SE 15.0 mph - N/A Thunderstorm Scattered Clouds
3:31 PM 62.6 °F - 32.0 °F 32% 29.77 in 10.0 mi SE 19.6 mph - N/A   Mostly Cloudy
3:53 PM 63.0 °F - 30.0 °F 29% 29.54 in 10.0 mi SSE 16.1 mph - N/A   Scattered Clouds
4:04 PM 62.6 °F - 30.2 °F 30% 29.76 in 10.0 mi South 5.8 mph - N/A Thunderstorm Thunderstorm
4:31 PM 64.4 °F - 33.8 °F 32% 29.76 in 10.0 mi SE 11.5 mph 19.6 mph N/A   Mostly Cloudy
4:53 PM 66.0 °F - 34.0 °F 30% 29.53 in 10.0 mi SSE 17.3 mph - N/A   Overcast
5:53 PM 68.0 °F - 25.0 °F 20% 29.50 in 10.0 mi WSW 17.3 mph 24.2 mph N/A   Scattered Clouds
6:53 PM 64.0 °F - 26.1 °F 24% 29.50 in 10.0 mi WSW 13.8 mph - N/A   Clear
7:53 PM 60.1 °F - 28.0 °F 30% 29.49 in 10.0 mi West 17.3 mph 25.3 mph N/A   Clear
8:53 PM 57.0 °F - 30.9 °F 37% 29.51 in 10.0 mi WNW 13.8 mph - N/A   Partly Cloudy
9:53 PM 53.1 °F - 33.1 °F 47% 29.53 in 10.0 mi Calm Calm - N/A   Overcast
10:53 PM 52.0 °F - 34.0 °F 50% 29.54 in 10.0 mi NNW 3.5 mph - N/A   Scattered Clouds
11:53 PM 46.9 °F - 36.0 °F 66% 29.52 in 10.0 mi North 12.7 mph - N/A   Clear